This is the latest recevied weather packets stored in our database for station/object IW2NIA-3. If no packets are shown the sender has not sent any weather packets the latest 10 day(s).
| Time | Temp. | Humidity | Pressure | Rain* | Wind** | Luminosity | Snow |
|---|---|---|---|---|---|---|---|
| 1777255410 | 12.22° C | 88% | 1017 hPa | 0 mm | - | - | - |
| 1777254509 | 12.22° C | 88% | 1016.9 hPa | 0 mm | - | - | - |
| 1777253622 | 12.22° C | 88% | 1016.9 hPa | 0 mm | - | - | - |
| 1777252715 | 12.78° C | 88% | 1017 hPa | 0 mm | - | - | - |
| 1777251809 | 12.78° C | 87% | 1017.1 hPa | 0 mm | - | - | - |
| 1777250918 | 12.78° C | 87% | 1017.1 hPa | 0 mm | - | - | - |
| 1777250011 | 12.78° C | 86% | 1017.2 hPa | 0 mm | - | - | - |
| 1777249106 | 13.33° C | 86% | 1017.2 hPa | 0 mm | - | - | - |
| 1777248223 | 13.33° C | 85% | 1017.3 hPa | 0 mm | - | - | - |
| 1777247320 | 13.89° C | 85% | 1017.3 hPa | 0 mm | - | - | - |
| 1777246416 | 13.89° C | 84% | 1017.4 hPa | 0 mm | - | - | - |
| 1777245516 | 13.89° C | 83% | 1017.4 hPa | 0 mm | - | - | - |
| 1777244610 | 14.44° C | 83% | 1017.3 hPa | 0 mm | - | - | - |
| 1777243723 | 14.44° C | 82% | 1017.2 hPa | 0 mm | - | - | - |
| 1777242815 | 15° C | 81% | 1017.1 hPa | 0 mm | - | - | - |
| 1777241910 | 15° C | 80% | 1017.1 hPa | 0 mm | - | - | - |
| 1777241023 | 15.56° C | 79% | 1017.2 hPa | 0 mm | - | - | - |
| 1777240115 | 16.11° C | 78% | 1017.2 hPa | 0 mm | - | - | - |
| 1777239216 | 16.11° C | 77% | 1017.1 hPa | 0 mm | - | - | - |
| 1777238327 | 16.67° C | 76% | 1017.1 hPa | 0 mm | - | - | - |
| 1777237419 | 16.67° C | 76% | 1017 hPa | 0 mm | - | - | - |
| 1777236524 | 16.67° C | 76% | 1017 hPa | 0 mm | - | - | - |
| 1777235615 | 16.67° C | 74% | 1017 hPa | 0 mm | - | - | - |
| 1777234710 | 17.22° C | 72% | 1016.8 hPa | 0 mm | - | - | - |
| 1777233812 | 17.78° C | 71% | 1016.7 hPa | 0 mm | - | - | - |
* Rain latest hour (hover to see other rain measurements)
** Current wind speed in m/s (hover to see current wind gust speed)